WAT251 KIND-KRDU

Flight info

Callsign WAT251
Flight time 1h 12m
Altitude 27000
Route MAREO5 BDOCK DCT ROA DCT FRIKY ALDAN4
Aircraft B739/M-SDE2E3FGHIRWXY/LB1

Departure

Time 2026-05-06 23:34
Airport Indianapolis International Airport (KIND)

Arrival

Time 2026-05-07 00:46
Airport Raleigh-Durham International Airport (KRDU)
Time Latitude Longitude Altitude Speed Heading
2026-05-06 23:04 39.71753 -86.29804 773 ft 0 kts 129°
2026-05-06 23:22 39.71759 -86.29816 773 ft 2 kts 129°
2026-05-06 23:23 39.71769 -86.29831 773 ft 2 kts 129°
2026-05-06 23:23 39.71775 -86.29841 772 ft 1 kts 129°
2026-05-06 23:23 39.71781 -86.29858 772 ft 2 kts 91°
2026-05-06 23:23 39.71778 -86.29877 772 ft 2 kts 59°
2026-05-06 23:24 39.71772 -86.29886 772 ft 1 kts 39°
2026-05-06 23:24 39.71767 -86.29891 771 ft 0 kts 38°
2026-05-06 23:26 39.71772 -86.29887 771 ft 0 kts 38°
2026-05-06 23:27 39.71772 -86.29886 771 ft 0 kts 38°
2026-05-06 23:27 39.71786 -86.29874 772 ft 3 kts 16°
2026-05-06 23:27 39.71841 -86.29864 772 ft 11 kts
2026-05-06 23:28 39.71914 -86.29833 773 ft 10 kts 28°
2026-05-06 23:28 39.71983 -86.29771 774 ft 12 kts 39°
2026-05-06 23:28 39.72049 -86.29702 775 ft 14 kts 39°
2026-05-06 23:28 39.72123 -86.29625 777 ft 11 kts 38°
2026-05-06 23:29 39.72196 -86.29625 777 ft 11 kts 326°
2026-05-06 23:29 39.72258 -86.29691 775 ft 11 kts 346°
2026-05-06 23:29 39.72325 -86.29639 776 ft 14 kts 42°
2026-05-06 23:29 39.72375 -86.29574 778 ft 0 kts 46°
2026-05-06 23:30 39.72378 -86.29570 778 ft 4 kts 46°
2026-05-06 23:30 39.72407 -86.29531 779 ft 5 kts 46°
2026-05-06 23:30 39.72431 -86.29499 779 ft 7 kts 46°
2026-05-06 23:31 39.72474 -86.29443 780 ft 8 kts 44°
2026-05-06 23:31 39.72512 -86.29395 781 ft 8 kts 44°
2026-05-06 23:31 39.72577 -86.29317 783 ft 12 kts 43°
2026-05-06 23:31 39.72637 -86.29242 784 ft 11 kts 44°
2026-05-06 23:32 39.72691 -86.29179 785 ft 4 kts 26°
2026-05-06 23:32 39.72736 -86.29200 785 ft 9 kts 314°
2026-05-06 23:32 39.72786 -86.29260 784 ft 11 kts 317°
2026-05-06 23:32 39.72780 -86.29353 782 ft 14 kts 229°
2026-05-06 23:33 39.72584 -86.29610 777 ft 71 kts 225°
2026-05-06 23:33 39.72076 -86.30254 764 ft 128 kts 225°
2026-05-06 23:33 39.71321 -86.31208 763 ft 171 kts 226°
2026-05-06 23:33 39.70467 -86.32301 1331 ft 172 kts 230°
2026-05-06 23:34 39.69610 -86.33385 1856 ft 181 kts 227°
2026-05-06 23:34 39.68614 -86.34608 2062 ft 208 kts 229°
2026-05-06 23:34 39.67560 -86.35945 2630 ft 217 kts 227°
2026-05-06 23:34 39.66425 -86.37315 3161 ft 230 kts 227°
2026-05-06 23:35 39.65205 -86.38750 3643 ft 246 kts 225°
2026-05-06 23:35 39.63866 -86.40202 4167 ft 260 kts 216°
2026-05-06 23:35 39.62119 -86.40905 4815 ft 275 kts 182°
2026-05-06 23:35 39.60291 -86.40223 5629 ft 279 kts 149°
2026-05-06 23:36 39.58971 -86.38423 6378 ft 283 kts 119°
2026-05-06 23:36 39.58372 -86.36002 7044 ft 288 kts 96°
2026-05-06 23:36 39.58525 -86.33395 7637 ft 294 kts 74°
2026-05-06 23:36 39.59200 -86.30897 8239 ft 300 kts 66°
2026-05-06 23:37 39.60021 -86.28363 8878 ft 305 kts 65°
2026-05-06 23:37 39.60826 -86.25815 9465 ft 312 kts 67°
2026-05-06 23:37 39.61615 -86.23166 10036 ft 320 kts 68°
2026-05-06 23:37 39.62400 -86.20370 10444 ft 334 kts 69°
2026-05-06 23:38 39.63185 -86.17490 10764 ft 350 kts 69°
2026-05-06 23:38 39.64019 -86.14430 11105 ft 366 kts 69°
2026-05-06 23:38 39.64881 -86.11285 11379 ft 383 kts 69°
2026-05-06 23:38 39.65802 -86.07937 11671 ft 400 kts 69°
2026-05-06 23:39 39.66755 -86.04474 11937 ft 416 kts 69°
2026-05-06 23:39 39.67747 -86.00861 12183 ft 433 kts 69°
2026-05-06 23:39 39.68767 -85.97142 12414 ft 449 kts 69°
2026-05-06 23:39 39.69829 -85.93263 12857 ft 459 kts 69°
2026-05-06 23:40 39.70891 -85.89381 13375 ft 466 kts 69°
2026-05-06 23:40 39.71981 -85.85392 13990 ft 471 kts 69°
2026-05-06 23:40 39.73083 -85.81355 14612 ft 476 kts 69°
2026-05-06 23:40 39.74186 -85.77302 15161 ft 484 kts 69°
2026-05-06 23:41 39.75322 -85.73128 15710 ft 492 kts 68°
2026-05-06 23:41 39.76455 -85.68954 16228 ft 499 kts 69°
2026-05-06 23:41 39.77618 -85.64658 16761 ft 506 kts 68°
2026-05-06 23:41 39.78790 -85.60314 17318 ft 511 kts 69°
2026-05-06 23:42 39.79967 -85.55946 17750 ft 519 kts 68°
2026-05-06 23:42 39.81167 -85.51485 18264 ft 525 kts 69°
2026-05-06 23:42 39.82364 -85.47034 18780 ft 531 kts 68°
2026-05-06 23:42 39.83590 -85.42464 19236 ft 538 kts 68°
2026-05-06 23:43 39.84829 -85.37846 19780 ft 543 kts 68°
2026-05-06 23:43 39.86064 -85.33197 20278 ft 548 kts 70°
2026-05-06 23:43 39.87155 -85.28442 20798 ft 553 kts 75°
2026-05-06 23:43 39.88011 -85.23601 21227 ft 558 kts 80°
2026-05-06 23:44 39.88657 -85.18593 21639 ft 564 kts 84°
2026-05-06 23:44 39.89112 -85.13519 22083 ft 568 kts 86°
2026-05-06 23:44 39.89447 -85.08370 22580 ft 571 kts 88°
2026-05-06 23:44 39.89713 -85.03238 22983 ft 576 kts 90°
2026-05-06 23:45 39.89951 -84.98002 23489 ft 579 kts 90°
2026-05-06 23:45 39.90174 -84.92777 23900 ft 583 kts 89°
2026-05-06 23:45 39.90399 -84.87542 24264 ft 589 kts 89°
2026-05-06 23:45 39.90636 -84.82182 24677 ft 593 kts 89°
2026-05-06 23:46 39.90883 -84.76789 24999 ft 599 kts 89°
2026-05-06 23:46 39.91139 -84.71435 25415 ft 603 kts 89°
2026-05-06 23:46 39.91408 -84.65984 25816 ft 606 kts 89°
2026-05-06 23:46 39.91682 -84.60490 26069 ft 613 kts 88°
2026-05-06 23:47 39.91960 -84.54961 26479 ft 616 kts 89°
2026-05-06 23:47 39.92241 -84.49370 26929 ft 614 kts 89°
2026-05-06 23:47 39.92514 -84.43926 27000 ft 601 kts 88°
2026-05-06 23:47 39.92783 -84.38544 27001 ft 585 kts 90°
2026-05-06 23:48 39.92858 -84.33342 26995 ft 572 kts 96°
2026-05-06 23:48 39.92484 -84.28186 26999 ft 567 kts 107°
2026-05-06 23:48 39.91485 -84.23296 26994 ft 559 kts 119°
2026-05-06 23:48 39.89951 -84.18711 26996 ft 549 kts 128°
2026-05-06 23:49 39.88106 -84.14416 26995 ft 539 kts 133°
2026-05-06 23:49 39.86047 -84.10393 26997 ft 529 kts 138°
2026-05-06 23:49 39.83890 -84.06588 26996 ft 526 kts 140°
2026-05-06 23:49 39.81678 -84.02830 26993 ft 524 kts 140°
2026-05-06 23:50 39.79467 -83.99116 26993 ft 521 kts 140°
2026-05-06 23:50 39.74960 -83.91599 26991 ft 523 kts 140°
2026-05-06 23:50 39.72720 -83.87850 26993 ft 523 kts 140°
2026-05-06 23:51 39.70505 -83.84132 26987 ft 524 kts 140°
2026-05-06 23:51 39.68283 -83.80387 26987 ft 521 kts 140°
2026-05-06 23:51 39.66053 -83.76633 26982 ft 526 kts 140°
2026-05-06 23:51 39.63828 -83.72894 26981 ft 530 kts 140°
2026-05-06 23:52 39.61592 -83.69126 26978 ft 525 kts 140°
2026-05-06 23:52 39.59360 -83.65354 26980 ft 522 kts 139°
2026-05-06 23:52 39.57178 -83.61671 26980 ft 521 kts 140°
2026-05-06 23:52 39.55007 -83.58014 26976 ft 520 kts 140°
2026-05-06 23:53 39.52805 -83.54311 26983 ft 521 kts 140°
2026-05-06 23:53 39.50566 -83.50568 26981 ft 528 kts 140°
2026-05-06 23:53 39.48352 -83.46865 26984 ft 523 kts 140°
2026-05-06 23:53 39.46108 -83.43147 26986 ft 518 kts 141°
2026-05-06 23:54 39.43867 -83.39534 26991 ft 521 kts 141°
2026-05-06 23:54 39.41597 -83.35916 26988 ft 520 kts 141°
2026-05-06 23:54 39.39297 -83.32237 26991 ft 522 kts 141°
2026-05-06 23:54 39.37037 -83.28588 26997 ft 522 kts 141°
2026-05-06 23:55 39.34779 -83.24905 26995 ft 523 kts 141°
2026-05-06 23:55 39.32551 -83.21246 26997 ft 521 kts 140°
2026-05-06 23:55 39.30303 -83.17528 27001 ft 524 kts 140°
2026-05-06 23:55 39.28075 -83.13839 26994 ft 527 kts 140°
2026-05-06 23:56 39.25835 -83.10117 26997 ft 526 kts 140°
2026-05-06 23:56 39.23596 -83.06391 26997 ft 523 kts 140°
2026-05-06 23:56 39.21388 -83.02705 26999 ft 520 kts 140°
2026-05-06 23:56 39.19150 -82.98991 26993 ft 526 kts 140°
2026-05-06 23:57 39.16901 -82.95266 26995 ft 524 kts 140°
2026-05-06 23:57 39.14680 -82.91578 26998 ft 519 kts 140°
2026-05-06 23:57 39.12475 -82.87926 26997 ft 521 kts 140°
2026-05-06 23:57 39.10225 -82.84213 26994 ft 525 kts 140°
2026-05-06 23:58 39.07967 -82.80491 27000 ft 526 kts 140°
2026-05-06 23:58 39.05747 -82.76828 26999 ft 520 kts 140°
2026-05-06 23:58 39.03525 -82.73160 26999 ft 521 kts 141°
2026-05-06 23:58 39.01282 -82.69472 26993 ft 523 kts 140°
2026-05-06 23:59 38.99009 -82.65747 26994 ft 525 kts 140°
2026-05-06 23:59 38.96778 -82.62086 26995 ft 521 kts 140°
2026-05-06 23:59 38.94499 -82.58343 26998 ft 518 kts 140°
2026-05-06 23:59 38.92254 -82.54665 26997 ft 522 kts 140°
2026-05-07 00:00 38.89959 -82.50920 26995 ft 523 kts 140°
2026-05-07 00:00 38.87647 -82.47142 26994 ft 522 kts 140°
2026-05-07 00:00 38.85322 -82.43359 26993 ft 527 kts 140°
2026-05-07 00:00 38.83014 -82.39596 26992 ft 519 kts 140°
2026-05-07 00:01 38.80760 -82.35916 26989 ft 517 kts 139°
2026-05-07 00:01 38.78517 -82.32268 26991 ft 520 kts 140°
2026-05-07 00:01 38.76302 -82.28672 26989 ft 519 kts 141°
2026-05-07 00:01 38.74056 -82.25024 26989 ft 519 kts 140°
2026-05-07 00:02 38.71786 -82.21353 26988 ft 519 kts 140°
2026-05-07 00:02 38.69448 -82.17580 26987 ft 522 kts 140°
2026-05-07 00:02 38.67203 -82.13953 26987 ft 518 kts 140°
2026-05-07 00:02 38.64943 -82.10291 26987 ft 518 kts 140°
2026-05-07 00:03 38.62706 -82.06688 26987 ft 519 kts 140°
2026-05-07 00:03 38.60404 -82.02979 26987 ft 520 kts 140°
2026-05-07 00:03 38.58085 -81.99252 26985 ft 518 kts 140°
2026-05-07 00:03 38.55780 -81.95537 26986 ft 514 kts 140°
2026-05-07 00:04 38.53545 -81.91938 26986 ft 511 kts 140°
2026-05-07 00:04 38.51318 -81.88367 26985 ft 515 kts 140°
2026-05-07 00:04 38.49040 -81.84732 26984 ft 519 kts 140°
2026-05-07 00:04 38.46751 -81.81082 26984 ft 519 kts 140°
2026-05-07 00:05 38.44492 -81.77472 26984 ft 515 kts 139°
2026-05-07 00:05 38.42246 -81.73883 26984 ft 514 kts 139°
2026-05-07 00:05 38.40026 -81.70332 26985 ft 510 kts 139°
2026-05-07 00:05 38.37785 -81.66762 26984 ft 513 kts 139°
2026-05-07 00:06 38.35564 -81.63236 26984 ft 514 kts 139°
2026-05-07 00:06 38.33328 -81.59681 26984 ft 514 kts 139°
2026-05-07 00:06 38.31081 -81.56114 26985 ft 510 kts 139°
2026-05-07 00:06 38.28866 -81.52594 26984 ft 509 kts 139°
2026-05-07 00:07 38.26621 -81.49039 26981 ft 510 kts 139°
2026-05-07 00:07 38.24341 -81.45440 26979 ft 512 kts 139°
2026-05-07 00:07 38.22093 -81.41889 26976 ft 510 kts 139°
2026-05-07 00:07 38.19898 -81.38416 26976 ft 506 kts 139°
2026-05-07 00:08 38.17673 -81.34905 26974 ft 509 kts 139°
2026-05-07 00:08 38.15468 -81.31445 26974 ft 510 kts 139°
2026-05-07 00:08 38.13233 -81.27930 26971 ft 508 kts 139°
2026-05-07 00:08 38.11022 -81.24459 26968 ft 511 kts 139°
2026-05-07 00:09 38.08770 -81.20924 26967 ft 508 kts 139°
2026-05-07 00:09 38.06568 -81.17460 26967 ft 510 kts 139°
2026-05-07 00:09 38.04355 -81.13991 26966 ft 510 kts 139°
2026-05-07 00:09 38.02112 -81.10476 26965 ft 508 kts 139°
2026-05-07 00:10 37.99901 -81.07011 26964 ft 506 kts 139°
2026-05-07 00:10 37.97691 -81.03552 26966 ft 509 kts 139°
2026-05-07 00:10 37.95465 -81.00079 26958 ft 510 kts 139°
2026-05-07 00:10 37.93230 -80.96591 26970 ft 506 kts 139°
2026-05-07 00:11 37.91015 -80.93140 26968 ft 508 kts 139°
2026-05-07 00:11 37.88765 -80.89645 26973 ft 512 kts 138°
2026-05-07 00:11 37.86548 -80.86201 26975 ft 508 kts 138°
2026-05-07 00:11 37.84307 -80.82722 26971 ft 507 kts 138°
2026-05-07 00:12 37.82096 -80.79298 26972 ft 508 kts 138°
2026-05-07 00:12 37.79832 -80.75800 26970 ft 510 kts 138°
2026-05-07 00:12 37.77607 -80.72350 26970 ft 511 kts 139°
2026-05-07 00:12 37.75337 -80.68838 26973 ft 511 kts 138°
2026-05-07 00:13 37.73113 -80.65408 26966 ft 508 kts 138°
2026-05-07 00:13 37.70874 -80.61956 26967 ft 508 kts 138°
2026-05-07 00:13 37.68647 -80.58531 26965 ft 509 kts 137°
2026-05-07 00:13 37.66389 -80.55067 26963 ft 510 kts 137°
2026-05-07 00:14 37.64137 -80.51611 26958 ft 508 kts 137°
2026-05-07 00:14 37.61928 -80.48214 26963 ft 501 kts 137°
2026-05-07 00:14 37.59721 -80.44813 26957 ft 496 kts 137°
2026-05-07 00:14 37.57537 -80.41456 26963 ft 497 kts 137°
2026-05-07 00:15 37.55366 -80.38125 26959 ft 496 kts 137°
2026-05-07 00:15 37.53165 -80.34753 26955 ft 496 kts 138°
2026-05-07 00:15 37.50986 -80.31424 26953 ft 490 kts 138°
2026-05-07 00:15 37.48874 -80.28184 26947 ft 473 kts 138°
2026-05-07 00:16 37.46798 -80.24998 26945 ft 465 kts 138°
2026-05-07 00:16 37.44752 -80.21883 26947 ft 470 kts 138°
2026-05-07 00:16 37.42641 -80.18691 26945 ft 474 kts 138°
2026-05-07 00:16 37.40546 -80.15522 26942 ft 470 kts 138°
2026-05-07 00:17 37.38473 -80.12380 26937 ft 469 kts 138°
2026-05-07 00:17 37.36388 -80.09229 26946 ft 475 kts 138°
2026-05-07 00:17 37.34288 -80.06052 26947 ft 472 kts 138°
2026-05-07 00:17 37.32175 -80.02853 26937 ft 472 kts 138°
2026-05-07 00:18 37.30108 -79.99729 26928 ft 469 kts 138°
2026-05-07 00:18 37.28040 -79.96594 26932 ft 459 kts 138°
2026-05-07 00:18 37.26022 -79.93533 26926 ft 455 kts 138°
2026-05-07 00:18 37.23986 -79.90459 26924 ft 458 kts 138°
2026-05-07 00:19 37.21973 -79.87419 26892 ft 460 kts 138°
2026-05-07 00:19 37.19923 -79.84274 26922 ft 464 kts 137°
2026-05-07 00:19 37.17909 -79.81131 26918 ft 460 kts 137°
2026-05-07 00:19 37.15935 -79.78023 26916 ft 458 kts 136°
2026-05-07 00:20 37.13940 -79.74863 26915 ft 460 kts 136°
2026-05-07 00:20 37.11984 -79.71751 26825 ft 454 kts 136°
2026-05-07 00:20 37.10060 -79.68677 26525 ft 447 kts 136°
2026-05-07 00:20 37.08152 -79.65625 26099 ft 443 kts 136°
2026-05-07 00:21 37.06261 -79.62611 25622 ft 441 kts 136°
2026-05-07 00:21 37.04384 -79.59623 25155 ft 439 kts 136°
2026-05-07 00:21 37.02489 -79.56614 24662 ft 436 kts 135°
2026-05-07 00:21 37.00615 -79.53639 24180 ft 434 kts 135°
2026-05-07 00:22 36.98769 -79.50711 23708 ft 432 kts 135°
2026-05-07 00:22 36.96928 -79.47794 23225 ft 430 kts 135°
2026-05-07 00:22 36.95070 -79.44852 22741 ft 428 kts 134°
2026-05-07 00:22 36.93241 -79.41958 22290 ft 425 kts 134°
2026-05-07 00:23 36.91449 -79.39120 22021 ft 412 kts 134°
2026-05-07 00:23 36.89705 -79.36350 21804 ft 398 kts 135°
2026-05-07 00:23 36.87992 -79.33630 21466 ft 393 kts 135°
2026-05-07 00:23 36.86298 -79.30964 21112 ft 390 kts 136°
2026-05-07 00:24 36.84625 -79.28339 20672 ft 389 kts 135°
2026-05-07 00:24 36.82951 -79.25715 20286 ft 384 kts 135°
2026-05-07 00:24 36.81317 -79.23144 19758 ft 382 kts 135°
2026-05-07 00:24 36.79665 -79.20548 19168 ft 380 kts 136°
2026-05-07 00:25 36.78025 -79.17973 18589 ft 378 kts 135°
2026-05-07 00:25 36.76399 -79.15422 18043 ft 375 kts 135°
2026-05-07 00:25 36.74789 -79.12897 17498 ft 373 kts 135°
2026-05-07 00:25 36.73169 -79.10359 16916 ft 372 kts 134°
2026-05-07 00:26 36.71587 -79.07880 16452 ft 367 kts 134°
2026-05-07 00:26 36.70003 -79.05391 16016 ft 362 kts 134°
2026-05-07 00:26 36.68393 -79.03077 15599 ft 351 kts 142°
2026-05-07 00:26 36.66489 -79.01294 15191 ft 331 kts 161°
2026-05-07 00:27 36.64380 -79.00381 14778 ft 315 kts 175°
2026-05-07 00:27 36.62268 -78.99796 14373 ft 308 kts 177°
2026-05-07 00:27 36.60191 -78.99257 13978 ft 304 kts 176°
2026-05-07 00:27 36.58138 -78.98701 13584 ft 300 kts 176°
2026-05-07 00:28 36.56115 -78.98129 13197 ft 296 kts 175°
2026-05-07 00:28 36.54116 -78.97555 12813 ft 294 kts 175°
2026-05-07 00:28 36.52070 -78.96976 12428 ft 309 kts 175°
2026-05-07 00:28 36.49975 -78.96379 12020 ft 311 kts 175°
2026-05-07 00:29 36.47883 -78.95767 11618 ft 305 kts 174°
2026-05-07 00:29 36.45816 -78.95158 11225 ft 299 kts 174°
2026-05-07 00:30 36.39948 -78.93265 10096 ft 288 kts 162°
2026-05-07 00:30 36.38320 -78.91851 9906 ft 287 kts 141°
2026-05-07 00:30 36.36962 -78.90065 9671 ft 287 kts 137°
2026-05-07 00:30 36.35591 -78.88174 9288 ft 300 kts 137°
2026-05-07 00:31 36.34161 -78.86262 8927 ft 298 kts 139°
2026-05-07 00:31 36.32746 -78.84429 8576 ft 297 kts 139°
2026-05-07 00:31 36.31316 -78.82606 8331 ft 291 kts 139°
2026-05-07 00:31 36.29924 -78.80838 8238 ft 280 kts 140°
2026-05-07 00:32 36.28569 -78.79131 8157 ft 269 kts 140°
2026-05-07 00:32 36.27280 -78.77516 7938 ft 265 kts 141°
2026-05-07 00:32 36.25973 -78.75874 7605 ft 266 kts 140°
2026-05-07 00:32 36.24672 -78.74226 7290 ft 267 kts 140°
2026-05-07 00:33 36.23383 -78.72588 6985 ft 266 kts 139°
2026-05-07 00:33 36.22097 -78.70957 6685 ft 266 kts 140°
2026-05-07 00:33 36.20801 -78.69317 6376 ft 266 kts 139°
2026-05-07 00:33 36.19505 -78.67676 6060 ft 266 kts 140°
2026-05-07 00:34 36.18245 -78.66074 5951 ft 254 kts 139°
2026-05-07 00:34 36.17053 -78.64525 5957 ft 245 kts 139°
2026-05-07 00:34 36.16005 -78.62837 5955 ft 253 kts 119°
2026-05-07 00:34 36.15632 -78.60674 5962 ft 261 kts 87°
2026-05-07 00:35 36.16140 -78.58536 5964 ft 262 kts 58°
2026-05-07 00:35 36.17166 -78.56693 5901 ft 260 kts 50°
2026-05-07 00:35 36.18247 -78.54926 5685 ft 257 kts 50°
2026-05-07 00:35 36.19340 -78.53150 5463 ft 255 kts 50°
2026-05-07 00:36 36.20406 -78.51408 5216 ft 254 kts 53°
2026-05-07 00:36 36.21111 -78.49427 4894 ft 256 kts 82°
2026-05-07 00:36 36.20985 -78.47272 4624 ft 248 kts 115°
2026-05-07 00:36 36.20052 -78.45579 4398 ft 232 kts 148°
2026-05-07 00:37 36.18651 -78.44795 4134 ft 216 kts 179°
2026-05-07 00:37 36.17191 -78.44811 3972 ft 208 kts 191°
2026-05-07 00:37 36.15770 -78.45167 3966 ft 206 kts 203°
2026-05-07 00:37 36.14475 -78.45882 3967 ft 204 kts 213°
2026-05-07 00:38 36.13309 -78.46871 3969 ft 203 kts 220°
2026-05-07 00:38 36.12239 -78.48005 3971 ft 200 kts 224°
2026-05-07 00:38 36.11221 -78.49197 3968 ft 202 kts 226°
2026-05-07 00:38 36.10225 -78.50406 3968 ft 201 kts 226°
2026-05-07 00:39 36.09237 -78.51619 3965 ft 200 kts 226°
2026-05-07 00:39 36.08247 -78.52844 3967 ft 200 kts 227°
2026-05-07 00:39 36.07258 -78.54073 3966 ft 201 kts 227°
2026-05-07 00:39 36.06265 -78.55305 3964 ft 201 kts 226°
2026-05-07 00:40 36.05286 -78.56516 3960 ft 200 kts 227°
2026-05-07 00:40 36.04290 -78.57751 3951 ft 202 kts 226°
2026-05-07 00:40 36.03311 -78.58961 3835 ft 198 kts 227°
2026-05-07 00:40 36.02328 -78.60178 3551 ft 200 kts 226°
2026-05-07 00:41 36.01358 -78.61377 3381 ft 194 kts 226°
2026-05-07 00:41 36.00423 -78.62531 3301 ft 184 kts 226°
2026-05-07 00:41 35.99539 -78.63625 3204 ft 174 kts 226°
2026-05-07 00:41 35.98697 -78.64665 3048 ft 168 kts 226°
2026-05-07 00:42 35.97884 -78.65672 2943 ft 164 kts 226°
2026-05-07 00:42 35.97068 -78.66683 2925 ft 170 kts 226°
2026-05-07 00:42 35.96227 -78.67718 2698 ft 172 kts 225°
2026-05-07 00:42 35.95403 -78.68740 2464 ft 168 kts 226°
2026-05-07 00:43 35.94561 -78.69772 2240 ft 170 kts 225°
2026-05-07 00:43 35.93737 -78.70775 2026 ft 160 kts 225°
2026-05-07 00:43 35.92988 -78.71729 1829 ft 147 kts 226°
2026-05-07 00:43 35.92286 -78.72568 1633 ft 135 kts 224°
2026-05-07 00:44 35.91611 -78.73398 1448 ft 137 kts 226°
2026-05-07 00:44 35.90945 -78.74238 1266 ft 137 kts 224°
2026-05-07 00:44 35.90247 -78.75068 1085 ft 139 kts 225°
2026-05-07 00:44 35.89570 -78.75935 902 ft 141 kts 225°
2026-05-07 00:45 35.88851 -78.76772 712 ft 143 kts 225°
2026-05-07 00:45 35.88148 -78.77652 536 ft 146 kts 224°
2026-05-07 00:45 35.87444 -78.78522 430 ft 131 kts 224°
2026-05-07 00:45 35.86975 -78.79105 412 ft 64 kts 226°
2026-05-07 00:46 35.86779 -78.79418 401 ft 24 kts 257°
2026-05-07 00:46 35.86774 -78.79488 399 ft 0 kts 277°
2026-05-07 00:47 35.86774 -78.79493 399 ft 0 kts 278°
2026-05-07 00:47 35.86779 -78.79513 398 ft 6 kts 295°
2026-05-07 00:47 35.86820 -78.79575 394 ft 11 kts 316°
2026-05-07 00:48 35.86886 -78.79649 390 ft 14 kts 315°
2026-05-07 00:48 35.86962 -78.79745 385 ft 16 kts 315°
2026-05-07 00:48 35.87049 -78.79850 379 ft 14 kts 315°
2026-05-07 00:48 35.87124 -78.79939 374 ft 15 kts 322°
2026-05-07 00:49 35.87198 -78.79997 370 ft 12 kts 332°
2026-05-07 00:49 35.87280 -78.80048 368 ft 13 kts 338°
2026-05-07 00:49 35.87372 -78.80075 367 ft 13 kts 12°
2026-05-07 00:49 35.87440 -78.80009 370 ft 13 kts 45°
2026-05-07 00:50 35.87509 -78.79923 373 ft 14 kts 46°
2026-05-07 00:50 35.87582 -78.79832 375 ft 15 kts 44°
2026-05-07 00:50 35.87659 -78.79738 377 ft 14 kts 45°
2026-05-07 00:50 35.87725 -78.79658 379 ft 12 kts 44°
2026-05-07 00:51 35.87786 -78.79583 380 ft 11 kts 45°
2026-05-07 00:51 35.87841 -78.79515 382 ft 10 kts 45°
2026-05-07 00:51 35.87897 -78.79445 382 ft 12 kts 45°
2026-05-07 00:51 35.87953 -78.79376 384 ft 9 kts 45°
2026-05-07 00:52 35.87993 -78.79326 386 ft 7 kts 45°
2026-05-07 00:52 35.88000 -78.79317 387 ft 1 kts 45°
2026-05-07 00:52 35.88042 -78.79265 387 ft 12 kts 46°
2026-05-07 00:52 35.88096 -78.79185 389 ft 9 kts 81°
2026-05-07 00:53 35.88070 -78.79122 393 ft 9 kts 126°
2026-05-07 00:53 35.88027 -78.79058 396 ft 12 kts 133°
2026-05-07 00:53 35.87971 -78.78993 400 ft 8 kts 150°
2026-05-07 00:53 35.87922 -78.78992 402 ft 5 kts 211°
2026-05-07 00:54 35.87890 -78.79028 402 ft 6 kts 223°
2026-05-07 00:54 35.87883 -78.79037 402 ft 0 kts 226°
2026-05-07 00:54 35.87894 -78.79044 401 ft 5 kts 17°
2026-05-07 00:54 35.87931 -78.79029 400 ft 2 kts 341°
2026-05-07 00:55 35.87935 -78.79043 400 ft 3 kts 279°
2026-05-07 00:55 35.87936 -78.79054 399 ft 0 kts 279°
2026-05-07 00:55 35.87936 -78.79055 399 ft 0 kts 279°